Regional Weather Roundup
Issued by NWS

Home | Current Version | Previous Version | Graphics & Text | Print | Product List | Glossary On
Versions: 1 2 3 4 5 6 7 8 9 10 11 12 13 14 15 16 17 18 19 20 21 22 23 24 25 26 27 28 29 30 31 32 33 34 35 36 37 38 39 40 41 42 43 44 45 46 47 48 49 50
000
ASUS43 KIND 200559
RWRIN

WEATHER ROUNDUP FOR INDIANA
NATIONAL WEATHER SERVICE INDIANAPOLIS IN
200 AM EDT SUN APR 20 2014

NOTE: "FAIR" INDICATES FEW OR NO CLOUDS BELOW 12,000 FEET WITH NO
SIGNIFICANT WEATHER AND/OR OBSTRUCTIONS TO VISIBILITY.

* - STATION DOES NOT REPORT WEATHER SUCH AS PRECIPITATION OR FOG.

+ - STATION NOT QUALITY CONTROLLED BY THE NATIONAL WEATHER SERVICE.
    USE DATA WITH CAUTION...ESPECIALLY DEWPOINT AND RELATIVE
    HUMIDITY OBSERVATIONS.

INZ001>003-010>013-019-020-200700-
NORTHWEST INDIANA

CITY           SKY/WX    TMP DP  RH WIND       PRES   REMARKS
RENSSELAER +   FAIR      46  32  57 E7        30.27F
VALPARAISO     FAIR      43  30  60 E6        30.28S
6HR MIN TEMP:  43; 6HR MAX TEMP:  61;


$$

LMZ046-743>745-200700-
SOUTHERN LAKE MICHIGAN

STATION/POSITION TIME  TEMP WIND        PRES
                       AIR  DIR/SP/G
                 (UTC) (F)  (DEG/KT/KT) (MB)
MICHIGAN CITY    0500   52  100/ 12/ 15   N/A

$$

INZ004-005-014>016-021>024-200700-
NORTH CENTRAL INDIANA

CITY           SKY/WX    TMP DP  RH WIND       PRES   REMARKS
GOSHEN         FAIR      43  30  60 SE8       30.30F
6HR MIN TEMP:  40; 6HR MAX TEMP:  57;

SOUTH BEND     FAIR      47  26  44 SE9       30.30F
6HR MIN TEMP:  47; 6HR MAX TEMP:  61;


$$

INZ006>009-017-018-025>027-200700-
NORTHEAST INDIANA

CITY           SKY/WX    TMP DP  RH WIND       PRES   REMARKS
ANGOLA *+      CLEAR     37  30  75 SE5       30.31F
FORT WAYNE     FAIR      39  28  64 NE7       30.31S
6HR MIN TEMP:  38; 6HR MAX TEMP:  54;


$$

INZ028-029-035-036-043>045-051>053-200700-
WEST CENTRAL INDIANA

CITY           SKY/WX    TMP DP  RH WIND       PRES   REMARKS
GREENCASTLE +  FAIR      50  36  57 NE5       30.26R
LAFAYETTE      FAIR      47  35  63 E7        30.26F
6HR MIN TEMP:  47; 6HR MAX TEMP:  59;

TERRE HAUTE    FAIR      50  39  66 NE3       30.24S
6HR MIN TEMP:  50; 6HR MAX TEMP:  62;


$$

INZ030>032-037>040-046>048-054>057-064-065-200700-
CENTRAL INDIANA

CITY           SKY/WX    TMP DP  RH WIND       PRES   REMARKS
INDIANAPOLIS   FAIR      50  33  52 NE7       30.24R
6HR MIN TEMP:  49; 6HR MAX TEMP:  63;

-EAGLE CREEK   FAIR      48  34  58 NE3       30.25R
6HR MIN TEMP:  48; 6HR MAX TEMP:  63;

KOKOMO *+      FAIR      43  27  52 E7        30.29S
MT COMFORT *+  FAIR      43  36  75 N8        30.27R
SHELBYVILLE    FAIR      49  36  61 E9        30.24S
6HR MIN TEMP:  49; 6HR MAX TEMP:  65;


$$

INZ033-034-041-042-049-050-058-059-200700-
EAST CENTRAL INDIANA

CITY           SKY/WX    TMP DP  RH WIND       PRES   REMARKS
MUNCIE         FAIR      41  29  62 E6        30.28R
6HR MIN TEMP:  41; 6HR MAX TEMP:  58;


$$

INZ060-061-067>069-081>083-085>088-200700-
SOUTHWEST INDIANA

CITY           SKY/WX    TMP DP  RH WIND       PRES   REMARKS
EVANSVILLE     FAIR      57  41  55 N5        30.21R
6HR MIN TEMP:  57; 6HR MAX TEMP:  71;

HUNTINGBURG *+ FAIR      54  36  50 E6        30.21S
6HR MIN TEMP:  54; 6HR MAX TEMP:  66;


$$

INZ062-063-066-070>080-084-089>092-200700-
SOUTH CENTRAL AND SOUTHEAST INDIANA

CITY           SKY/WX    TMP DP  RH WIND       PRES   REMARKS
BLOOMINGTON    FAIR      50  35  56 CALM      30.23R
6HR MIN TEMP:  49; 6HR MAX TEMP:  66;


$$




USA.gov is the U.S. government's official web portal to all federal, state and local government web resources and services.